Location: ?????????
(55.4078°N, 38.6626°E)
Time: 11:13:27
(UTC+00:00)

Daily predictions for brighter satellites

Satellite Brightness Start Highest point End
(mag) Time Altitude Azimuth Time Altitude Azimuth Time Altitude Azimuth
Cosmos 1340 Rocket 2.8 18:40:33 10° S 18:44:31 75° ESE 18:48:30 10° NNE
Resurs 01 Rocket 4.3 18:44:23 10° WSW 18:46:44 14° W 18:49:05 10° NW
SL-16 R/B 4.3 18:44:50 10° NNW 18:49:11 22° NNE 18:53:31 10° ENE
Okean O Rocket 4.3 18:46:39 10° WSW 18:49:16 15° W 18:51:54 10° NW
Cosmos 1656 3.8 18:44:14 10° NW 18:49:41 72° WSW 18:55:11 10° SSE
Cosmos 1833 Rocket 3.9 18:45:46 10° SSE 18:50:03 23° ESE 18:54:21 10° NE
Terra 2.3 18:47:11 10° S 18:51:50 57° W 18:56:31 10° NNW
Cosmos 1805 3.2 18:50:02 10° NNW 18:53:47 79° W 18:57:29 10° S
H-2A R/B 4.3 18:51:12 10° ESE 18:54:30 22° ENE 18:57:52 10° N
Cosmos 1743 Rocket 4.4 18:51:32 10° NNW 18:55:49 50° W 19:00:07 10° S
Cosmos 1766 3.9 18:53:04 10° N 18:56:40 40° ENE 19:00:14 10° SE
Cosmos 1553 Rocket 4.5 18:53:57 10° N 18:59:50 48° ENE 19:05:43 10° SE
Cosmos 1603 4.2 18:54:44 10° SW 19:00:25 69° NW 19:06:11 10° NNE
Cosmos 1428 Rocket 4.5 19:00:18 10° S 19:06:21 72° E 19:12:27 10° NNE
Cosmos 2360 4.3 19:01:28 10° NW 19:07:13 83° WSW 19:12:58 10° SSE
Okean 1 4.4 19:04:08 10° SW 19:07:51 44° WNW 19:11:38 10° N
Landsat 5 3.4 19:06:43 10° NNE 19:10:28 54° ESE 19:14:14 10° S
Cosmos 1470 3.9 19:07:38 10° N 19:10:57 30° ENE 19:14:15 10° SE
Cosmos 1151 Rocket 3.2 19:08:46 10° SSW 19:13:07 79° WNW 19:17:27 10° N
USA 281 3.4 19:07:34 10° SSE 19:14:11 77° WSW 19:20:50 10° NNW
Cosmos 1975 3.1 19:10:25 10° NNW 19:14:20 65° W 19:18:13 10° S
Meteor 1-18 Rocket 4.5 19:11:34 10° S 19:17:25 62° E 19:23:13 10° NNE
NOSS 3-3 (A) 4.1 19:12:29 10° SSW 19:17:50 49° SE 19:24:06 10° NE
MOS 1 Rocket 4.4 19:16:10 10° S 19:21:17 50° W 19:26:33 10° NNW
Cosmos 1092 Rocket 4.1 19:18:22 10° S 19:24:39 75° E 19:31:01 10° NNE
Cosmos 220 Rocket 4.1 19:23:23 10° SSW 19:27:43 84° WNW 19:32:02 10° NNE
Cosmos 1908 4.3 19:24:39 10° N 19:27:52 30° ENE 19:30:53 11° SE
ARIANE 5 R/B 2.9 19:25:29 12° SSE 19:29:28 58° ENE 19:33:44 10° N
NOSS 3-4 (A) 3.8 19:24:29 10° NW 19:31:06 81° SW 19:38:47 10° SE
NOSS 3-4 (C) 3.8 19:24:35 10° NW 19:31:12 81° SW 19:38:53 10° SE
Cosmos 1328 Rocket 3.5 19:28:33 10° S 19:32:51 76° E 19:37:10 10° NNE
CZ-2C R/B 4.4 19:29:40 10° NNE 19:33:51 37° E 19:37:29 13° SSE
Cosmos 1140 Rocket 4.2 19:34:28 11° S 19:38:58 37° ESE 19:43:45 10° NE
OPS 6432 4.3 19:39:05 10° NW 19:42:22 73° NE 19:45:17 11° ESE
Cosmos 1515 Rocket 3.9 19:40:01 13° SSE 19:43:42 49° E 19:47:53 10° NNE
Cosmos 1697 Rocket 2.9 19:38:53 10° NW 19:44:29 67° WSW 19:49:25 13° SSE
Cosmos 2322 Rocket 4.1 19:39:45 10° NNW 19:44:30 26° NNE 19:49:14 10° E
Spot 4 4.5 19:40:14 11° SE 19:44:33 46° ENE 19:49:08 10° N
Cosmos 1626 2.1 19:45:27 10° SSW 19:48:39 65° WNW 19:51:53 10° N
Cosmos 1470 Rocket 3.8 19:46:13 10° NNW 19:50:40 66° W 19:54:36 12° S
NOSS 3-3 (C) 3.9 19:45:49 10° SW 19:51:22 70° SE 19:58:03 10° NE
Cosmos 1869 Rocket 4.1 19:48:00 10° N 19:52:16 49° ENE 19:55:52 14° SE
Cosmos 1633 Rocket 4.0 19:49:23 10° NNW 19:53:34 42° W 19:57:42 10° SSW
Cosmos 1707 3.3 19:51:54 16° SSE 19:54:27 38° E 19:57:51 10° NNE
Cosmos 1980 Rocket 2.3 19:48:58 10° NNW 19:54:44 84° NE 19:59:53 13° SE
Cosmos 1300 4.4 19:52:50 10° NNE 19:55:39 21° ENE 19:58:27 10° ESE
USA 234 3.5 19:50:53 10° E 19:57:27 79° N 20:04:00 10° W
Cosmos 2333 Rocket 4.2 19:54:48 10° NNW 19:59:35 26° NNE 20:04:22 10° E
Cosmos 1441 Rocket 3.5 19:57:09 10° N 20:00:39 51° ENE 20:03:19 16° SE
Cosmos 44 Rocket 4.3 19:59:11 10° WNW 20:03:38 35° WSW 20:07:10 14° S
Lacrosse 5 rocket 1.4 20:01:41 10° WNW 20:05:50 59° SSW 20:09:28 12° SE
Cosmos 540 Rocket 3.9 20:01:09 10° NNW 20:06:17 60° ENE 20:10:59 12° SE
Cosmos 1763 Rocket 3.6 20:03:01 10° NNW 20:08:22 78° ENE 20:12:54 14° SSE
Cosmos 468 Rocket 4.4 20:05:35 10° NNW 20:10:51 61° ENE 20:15:39 12° SE
Cosmos 1066 Rocket 4.4 20:05:30 10° SSW 20:11:22 82° WNW 20:17:16 10° NNE
Meteor 2-12 Rocket 4.5 20:06:04 11° S 20:12:03 85° E 20:18:16 10° NNE
Cosmos 1842 3.0 20:10:07 16° S 20:13:01 77° E 20:16:43 10° NNE
Cosmos 1674 2.4 20:11:20 15° S 20:14:08 89° ESE 20:17:40 10° NNE
Cosmos 1933 Rocket 3.7 20:11:15 10° NNW 20:15:37 69° W 20:19:05 16° S
GP-B 4.3 20:16:29 10° NNE 20:20:27 31° E 20:23:40 14° SE
Cosmos 407 Rocket 3.8 20:16:11 14° S 20:20:30 52° ESE 20:25:34 10° NE
MINOTAUR 4 R/B 3.5 20:18:29 10° NNE 20:21:28 87° WNW 20:23:36 17° SSW
Cosmos 1818 3.9 20:16:39 10° SW 20:22:08 72° NW 20:27:39 10° NE
Cosmos 2369 3.7 20:16:24 10° NW 20:22:09 84° WSW 20:26:58 15° SSE
Cosmos 1607 4.1 20:16:53 10° SSW 20:23:16 65° SE 20:29:43 10° NE
KORONAS-FOTON 3.7 20:20:40 16° S 20:23:34 90° N 20:27:18 10° NNE
ATLAS 2AS CENTAUR R/B 3.7 20:20:57 10° WNW 20:27:47 50° NNE 20:34:21 10° E
H-2A R/B 2.7 20:25:54 17° S 20:29:05 65° WSW 20:33:23 10° NNW
Cosmos 1455 4.5 20:30:18 10° NNE 20:32:23 15° ENE 20:34:27 10° E
Cosmos 2219 Rocket 4.3 20:27:58 10° NNW 20:32:40 26° NNE 20:37:23 10° E
Cosmos 1833 Rocket 2.7 20:27:43 10° SW 20:33:21 84° NW 20:39:01 10° NNE
RESURS DK-1 4.5 20:30:09 10° NNW 20:33:34 25° NE 20:36:58 10° E
SL-16 R/B 2.9 20:28:59 10° NNW 20:34:34 53° NE 20:40:07 10° SE
COSMOS 2406 4.0 20:33:19 16° SSE 20:37:12 36° ESE 20:42:25 10° NE
ALOS 2 2.6 20:34:53 18° SSE 20:38:09 89° ENE 20:42:34 10° NNW
Meteor 1-12 Rocket 4.4 20:33:07 10° NNW 20:39:04 81° ENE 20:43:55 16° SSE
S3M 4.2 20:32:53 10° NNW 20:39:17 73° W 20:44:31 16° S
Cosmos 1758 3.3 20:40:19 10° N 20:44:11 69° ENE 20:46:48 19° SSE
Cosmos 1470 4.0 20:43:02 10° NNW 20:46:18 30° W 20:48:57 14° SSW
Cosmos 2082 Rocket 2.6 20:42:09 16° S 20:46:25 48° ESE 20:51:53 10° NE
Cosmos 2360 Rocket 3.4 20:41:24 10° NNW 20:46:46 40° NE 20:52:06 10° ESE
Cosmos 2251 Rocket 3.5 20:44:25 14° SSW 20:48:58 75° ESE 20:54:17 10° NNE
Meteor 2-10 Rocket 3.8 20:47:28 10° NNW 20:53:20 86° WSW 20:57:48 17° S
Cosmos 1707 Rocket 4.2 20:51:02 18° SSE 20:54:01 45° E 20:58:16 10° NNE
GEOS 3 Rocket 3.6 20:49:04 10° NE 20:54:19 85° SE 20:59:27 10° SW
SL-08 ROCKET BODY 4.5 20:50:51 15° S 20:56:05 89° WNW 21:02:17 10° NNE
Cosmos 724 4.3 20:53:21 10° SW 20:59:15 86° SE 21:05:06 10° NE
Cosmos 2315 Rocket 4.1 20:53:24 10° NNW 20:59:42 74° W 21:04:44 17° S
Meteor 1-13 Rocket 4.4 20:57:59 14° SSW 21:03:10 78° WNW 21:09:01 10° NNE
ARIANE 5 R/B 4.3 21:02:57 10° SW 21:06:13 22° W 21:09:37 10° NW
Okean 3 4.2 21:05:01 18° SSE 21:07:37 39° E 21:11:28 10° NNE
Cosmos 2237 4.2 21:03:35 10° NW 21:09:22 88° ENE 21:14:36 13° SSE
H-2A R/B 2.8 21:05:49 10° NNE 21:10:04 43° E 21:12:54 19° SSE
Cosmos 2285 Rocket 4.2 21:04:21 10° SW 21:10:41 74° WNW 21:17:06 10° NNE
Meteor 1-4 Rocket 4.3 21:10:32 12° ESE 21:11:58 16° E 21:13:54 10° NE
BREEZE-M DEB (TANK) 4.2 21:15:46 10° SW 21:19:01 42° SSE 21:28:06 10° E
Cosmos 1908 Rocket 4.2 21:15:18 10° N 21:19:37 49° ENE 21:23:12 14° SE
Cosmos 2278 3.7 21:14:43 10° NW 21:20:26 74° WSW 21:25:10 15° SSE
Cosmos 1140 Rocket 4.3 21:15:35 10° SW 21:20:38 49° NW 21:25:43 10° NNE
Cosmos 1346 Rocket 2.7 21:17:33 10° NNW 21:21:28 77° WSW 21:23:58 21° S
SL-24 R/B 4.4 21:18:27 10° NNE 21:23:11 81° ESE 21:27:08 18° SSW
Cosmos 1733 Rocket 3.2 21:18:57 10° NNW 21:23:15 62° W 21:26:12 20° S
Cosmos 2266 Rocket 4.4 21:17:38 12° SSW 21:23:17 58° WNW 21:29:34 10° N
Cosmos 2322 Rocket 2.4 21:23:45 10° NNW 21:29:27 76° NE 21:35:08 10° SE
Cosmos 1707 4.5 21:26:35 10° WSW 21:29:35 24° WNW 21:32:36 10° N
Helios 1A Rocket 4.2 21:26:30 10° SE 21:29:56 32° ENE 21:33:23 10° N
Cosmos 1300 3.3 21:27:11 10° NNW 21:30:35 41° W 21:32:38 20° SSW
Cosmos 1400 Rocket 2.9 21:27:50 19° SSW 21:30:39 71° WNW 21:34:36 10° N
Cosmos 841 Rocket 3.5 21:26:44 10° NNW 21:31:59 72° WSW 21:36:05 17° SSE
BREEZE-M DEB (TANK) 1.6 21:28:42 10° WSW 21:32:30 50° S 21:34:31 10° E
Meteor 1-21 4.3 21:28:43 18° S 21:33:07 79° E 21:38:55 10° NNE
Cosmos 1980 Rocket 3.7 21:33:42 10° NW 21:38:07 24° WSW 21:41:37 14° SSW
USA 234 3.2 21:33:57 10° ESE 21:40:32 80° SSW 21:47:08 10° WNW
Orbus 7S? 2.5 21:37:25 10° WSW 21:40:50 85° SSE 21:43:33 10° ENE
Lacrosse 5 rocket 2.9 21:40:46 10° W 21:43:31 17° SW 21:44:16 16° SW
Okean 1-7 3.3 21:41:35 19° S 21:44:33 58° E 21:48:50 10° NNE
Cosmos 2333 Rocket 2.5 21:39:04 10° NNW 21:44:48 73° NE 21:50:34 10° SE
Cosmos 2228 Rocket 3.4 21:41:50 17° SSW 21:45:14 61° WNW 21:49:45 10° N
Cosmos 1242 Rocket 4.3 21:47:51 11° SE 21:49:31 16° E 21:51:25 10° NE
Cosmos 1356 Rocket 3.5 21:51:21 19° SSW 21:54:16 71° WNW 21:58:28 10° N
Cosmos 1953 2.2 21:50:28 10° NNW 21:54:23 78° W 21:57:01 20° S
GP-B 4.0 21:53:37 10° NNW 21:57:43 39° W 22:00:59 15° SW
SL-27 R/B 4.3 21:56:27 11° SE 21:57:45 14° ESE 21:59:19 10° ENE
Genesis I 4.0 21:59:24 20° S 22:01:05 31° SE 22:04:17 10° ENE
SL-14 R/B 4.2 22:01:00 14° SW 22:03:54 38° WNW 22:07:29 10° N
Cosmos 1703 Rocket 3.9 22:01:24 18° S 22:04:39 62° E 22:09:05 10° NNE
Cosmos 1300 Rocket 3.9 22:01:52 10° N 22:06:10 61° ENE 22:10:02 12° SSE
Aureole 3 3.4 22:04:37 19° SW 22:06:34 47° WNW 22:09:55 10° N
Cosmos 1455 2.0 22:03:49 10° NNW 22:07:15 64° W 22:09:28 21° S
Cosmos 1862 Rocket 4.1 22:05:04 16° SW 22:08:23 49° WNW 22:12:39 10° N
Cosmos 676 Rocket 4.2 22:04:33 14° SW 22:09:12 71° WNW 22:14:34 10° NNE
Cosmos 1954 Rocket 4.4 22:05:17 12° SW 22:10:11 61° WNW 22:15:28 10° NNE
RESURS DK-1 2.2 22:07:39 10° NW 22:11:44 75° SW 22:15:33 11° SSE
SJ 16-02 2.6 22:08:51 14° SSE 22:11:55 30° ESE 22:15:43 10° NE
Cosmos 1814 Rocket 4.0 22:09:00 10° NNW 22:14:15 83° WSW 22:19:32 10° SSE
Cosmos 2219 Rocket 2.4 22:11:51 10° NNW 22:17:32 75° NE 22:23:13 10° SE
SL-16 R/B 2.8 22:13:19 10° NW 22:18:34 40° WSW 22:22:42 16° S
ATLAS 2AS CENTAUR R/B 2.6 22:12:17 10° NW 22:19:15 83° SW 22:25:56 10° SE
COSMOS 2406 3.7 22:15:37 10° SW 22:21:18 59° NW 22:27:01 10° NNE
Cosmos 2322 4.3 22:21:54 10° NNW 22:27:35 60° NE 22:33:12 10° SE
Cosmos 2082 Rocket 3.1 22:25:04 10° WSW 22:30:34 47° NW 22:36:06 10° NNE
Cosmos 2360 Rocket 2.3 22:25:27 10° NW 22:31:02 58° WSW 22:36:34 10° SSE
Cosmos 2333 4.2 22:27:32 10° NW 22:33:15 73° WSW 22:39:00 10° SSE
Cosmos 839 Rocket 4.2 22:27:13 10° NW 22:34:41 66° SW 22:40:56 10° SSE
Cosmos 2242 Rocket 4.2 22:30:58 13° SSE 22:34:49 51° E 22:39:13 10° NNE
Cosmos 1745 Rocket 4.1 22:30:04 15° S 22:35:26 88° W 22:41:50 10° N
Cosmos 405 Rocket 4.3 22:33:47 10° N 22:37:03 31° ENE 22:40:21 10° SE
Okean 2 Rocket 4.5 22:33:17 10° N 22:37:23 36° ENE 22:41:29 10° SE
SL-16 R/B 4.0 22:31:58 10° ESE 22:37:39 38° NE 22:43:21 10° N
CZ-2C R/B 3.4 22:35:01 10° SE 22:40:00 51° ENE 22:45:06 10° N
Okean 2 4.0 22:38:45 15° SW 22:41:49 44° WNW 22:45:40 10° N
Meteor 1-4 Rocket 3.0 22:42:38 16° SW 22:44:39 36° WNW 22:47:29 10° N
USA 267 3.6 22:38:44 10° ENE 22:45:05 50° SE 22:51:04 12° SW
H-2A R/B 3.4 22:41:44 10° N 22:45:39 32° WNW 22:49:32 10° WSW
Cosmos 2237 Rocket 3.8 22:45:37 10° NNW 22:50:59 39° NE 22:56:17 10° ESE
Cosmos 1315 Rocket 3.4 22:49:16 14° SW 22:52:24 47° WNW 22:56:16 10° N
Cosmos 1570 Rocket 4.1 22:47:15 10° NNW 22:52:37 89° WSW 22:57:58 10° SSE
COSMOS 2428 3.0 22:48:20 10° NNW 22:54:02 71° NE 22:59:44 10° SE
Cosmos 1782 Rocket 4.2 22:53:34 10° NNW 22:57:40 40° W 23:01:04 14° SSW
Cosmos 968 Rocket 3.5 22:56:50 13° SSW 23:01:21 87° WNW 23:06:34 10° NNE
H-2A R/B 4.3 22:58:22 10° NNE 23:02:10 41° E 23:05:56 10° S
Helios 1A Rocket 3.7 23:01:28 14° SSW 23:04:16 33° W 23:07:47 10° NNW
Cosmos 2208 Rocket 4.0 22:59:29 10° NNW 23:04:49 89° NE 23:10:03 10° SSE
SL-4 R/B 3.1 23:02:20 14° SSW 23:05:20 30° SSE 23:09:11 10° E
Cosmos 2098 Rocket 3.9 23:00:49 10° NNW 23:06:23 83° W 23:12:47 10° S
Cosmos 1892 4.4 23:05:59 10° SE 23:08:53 25° E 23:11:47 10° NE
EXPRESS MD2 3.9 23:10:58 15° SSW 23:12:37 26° SSE 23:15:55 10° ESE
Cosmos 2322 Rocket 3.3 23:08:23 10° NW 23:12:59 26° WSW 23:17:16 11° SSW
MOZ.5/SAFIR/RUBIN 5/SL-8 4.1 23:10:18 10° S 23:14:49 51° W 23:19:25 10° NNW
Resurs 1-4 Rocket 2.8 23:09:57 10° NNE 23:15:05 50° E 23:20:11 10° S
Cosmos 1408 2.3 23:15:08 14° SSW 23:17:33 57° WNW 23:20:31 10° N
Meteor 1-24 Rocket 4.0 23:14:00 10° S 23:20:00 76° E 23:25:53 10° NNE
Cosmos 1242 Rocket 3.0 23:19:14 12° SW 23:21:31 33° WNW 23:24:10 10° N
Nadezhda 3 Rocket 4.5 23:15:58 10° N 23:22:20 66° ENE 23:28:36 10° SSE
CZ-2D R/B 2.7 23:17:33 10° NNE 23:22:56 55° E 23:28:13 10° S
USA 234 3.7 23:18:04 10° SSE 23:24:08 39° SW 23:30:14 10° WNW
Cosmos 2297 Rocket 4.4 23:22:56 10° SE 23:26:38 18° E 23:30:20 10° ENE
OPS 8737 4.3 23:24:08 10° WNW 23:26:58 44° SW 23:29:53 10° SSE
Cosmos 2333 Rocket 3.2 23:23:52 10° NW 23:28:39 28° WSW 23:33:25 10° SSW
CRYOSAT 2 4.4 23:24:25 10° N 23:29:21 87° E 23:34:15 10° S
SL-27 R/B 2.7 23:27:58 11° SW 23:30:29 41° WNW 23:33:11 10° NNE
Cosmos 1703 3.2 23:29:18 11° SSW 23:32:53 68° WNW 23:36:37 10° N
Cosmos 1709 Rocket 4.5 23:30:48 10° SSW 23:37:00 53° WNW 23:43:16 10° N
IDEFIX/ARIANE 42P 2.7 23:31:51 10° NNE 23:37:10 87° ESE 23:42:26 10° SSW
Genesis I 3.8 23:33:50 10° WSW 23:37:17 48° NW 23:40:47 10° NE
Cosmos 1455 Rocket 4.4 23:35:14 10° N 23:39:25 41° ENE 23:43:36 10° SE
NOSS 5 (C) 4.1 23:37:06 10° NW 23:40:23 81° SW 23:43:32 10° SE
ADEOS II 2.7 23:39:02 10° NNE 23:44:12 55° E 23:49:21 10° S
RESURS DK-1 4.4 23:47:08 10° W 23:48:44 12° WSW 23:50:19 10° SW
CZ-4C R/B 4.2 23:47:26 10° SE 23:49:32 13° ESE 23:51:47 10° E
SJ 16-02 2.1 23:46:00 10° SW 23:50:09 44° NW 23:54:19 10° NNE
Cosmos 1825 2.3 23:49:17 10° S 23:52:39 63° E 23:56:05 10° NNE
Cosmos 2181 Rocket 4.5 23:46:59 10° NNW 23:53:00 47° W 23:58:54 10° SSW
Cosmos 1674 Rocket 3.6 23:51:02 10° S 23:55:28 89° W 23:59:55 10° NNE
